FW2827 Weather Reports


Display with metric or nautical units.
time (UTC)temp
F
wind
direction
speed
MPH
gust
MPH
rain 1hr
in
rain 24hr
in
rain mn
in
humidity
%
barometer
mb
20260507184518 95 77 6.0 9.0 0.00 0.00 0.00 61 1017.3
20260507183018 96 90 7.0 10.0 0.00 0.00 0.00 61 1017.5
20260507181511 96 63 7.0 11.0 0.00 0.00 0.00 62 1017.6
20260507180012 96 87 4.0 9.0 0.00 0.00 0.00 61 1017.7
20260507174510 97 76 5.0 9.0 0.00 0.00 0.00 60 1017.9
20260507173007 97 65 4.0 8.0 0.00 0.00 0.00 60 1018.1
20260507171506 98 65 2.0 6.0 0.00 0.00 0.00 59 1018.2
20260507170004 97 76 3.0 8.0 0.00 0.00 0.00 60 1018.2
20260507164502 97 69 4.0 9.0 0.00 0.00 0.00 61 1018.5
20260507163102 96 69 5.0 9.0 0.00 0.00 0.00 61 1018.7
20260507161559 96 67 6.0 9.0 0.00 0.00 0.00 61 1018.9
20260507160101 96 55 5.0 10.0 0.00 0.00 0.00 62 1019.0
20260507154552 94 72 5.0 11.0 0.00 0.00 0.00 64 1019.1
20260507153055 95 74 7.0 11.0 0.00 0.00 0.00 63 1019.3
20260507151549 94 93 6.0 11.0 0.00 0.00 0.00 64 1019.2
20260507150045 94 65 7.0 11.0 0.00 0.00 0.00 64 1019.2
20260507144640 92 83 6.0 13.0 0.00 0.00 0.00 65 1019.1
20260507143036 91 61 7.0 13.0 0.00 0.00 0.00 68 1018.9
20260507141536 88 51 9.0 14.0 0.00 0.00 0.00 71 1018.9
20260507140045 90 53 6.0 14.0 0.00 0.00 0.00 70 1018.8
20260507134531 89 72 8.0 15.0 0.00 0.00 0.00 72 1018.9
20260507133026 87 67 4.0 15.0 0.00 0.00 0.00 73 1018.9
20260507131525 87 71 6.0 15.0 0.00 0.00 0.00 75 1019.0
20260507130023 86 67 8.0 16.0 0.00 0.00 0.00 76 1019.1
20260507124523 85 86 6.0 15.0 0.00 0.00 0.00 77 1019.1
20260507123017 84 66 3.0 16.0 0.00 0.00 0.00 80 1018.8
20260507121514 82 86 1.0 14.0 0.00 0.00 0.00 80 1018.9
20260507120012 82 75 5.0 10.0 0.00 0.00 0.00 81 1018.9
20260507114509 81 106 6.0 11.0 0.00 0.00 0.00 82 1019.0
20260507113009 80 78 2.0 6.0 0.00 0.00 0.00 83 1019.0
20260507111510 80 84 1.0 5.0 0.00 0.00 0.00 83 1018.8
20260507110006 80 90 3.0 7.0 0.00 0.00 0.00 83 1018.8
20260507104504 80 76 5.0 13.0 0.00 0.00 0.00 84 1018.8
20260507103002 79 65 5.0 10.0 0.00 0.00 0.00 84 1018.6
20260507101502 79 126 1.0 6.0 0.00 0.00 0.00 84 1018.3
20260507100003 79 219 0.0 6.0 0.00 0.00 0.00 84 1018.3
20260507094559 79 136 0.0 9.0 0.00 0.00 0.00 84 1018.2
20260507093100 79 159 1.0 11.0 0.00 0.00 0.00 84 1018.1
20260507091558 79 198 0.0 9.0 0.00 0.00 0.00 84 1017.9
20260507090054 79 128 0.0 12.0 0.00 0.00 0.00 84 1017.8
20260507084555 79 84 4.0 9.0 0.00 0.00 0.00 84 1017.8
20260507083057 79 83 0.0 8.0 0.00 0.00 0.00 84 1017.7
20260507081552 79 113 0.0 5.0 0.00 0.00 0.00 84 1017.8
20260507080114 79 90 2.0 7.0 0.00 0.00 0.00 83 1017.7
20260507074557 79 117 4.0 8.0 0.00 0.00 0.00 83 1017.7
20260507073058 79 175 0.0 7.0 0.00 0.00 0.00 83 1017.7
20260507071600 79 188 3.0 8.0 0.00 0.00 0.00 83 1017.8
20260507070048 79 102 0.0 4.0 0.00 0.00 0.00 83 1017.9
20260507064551 79 128 0.0 4.0 0.00 0.00 0.00 83 1018.0
20260507063043 79 140 0.0 5.0 0.00 0.00 0.00 83 1018.2
20260507061543 79 206 1.0 6.0 0.00 0.00 0.00 83 1018.3
20260507060040 79 203 0.0 8.0 0.00 0.00 0.00 83 1018.6
20260507054548 79 86 1.0 6.0 0.00 0.00 0.00 83 1018.9
20260507053045 79 46 2.0 9.0 0.00 0.00 0.00 83 1018.8
20260507051537 80 101 1.0 8.0 0.00 0.00 0.00 83 1018.9
20260507050035 80 94 0.0 14.0 0.00 0.00 0.00 83 1019.2
20260507044533 80 82 2.0 10.0 0.00 0.00 0.00 82 1019.4
20260507043035 80 86 7.0 11.0 0.00 0.00 0.00 82 1019.6
20260507041526 80 67 5.0 13.0 0.00 0.00 0.00 82 1019.8
20260507040023 80 80 3.0 15.0 0.00 0.00 0.00 82 1019.8
20260507034521 81 66 4.0 14.0 0.00 0.00 0.00 82 1019.9
20260507033021 81 132 1.0 8.0 0.00 0.00 0.00 82 1020.1
20260507031520 81 186 1.0 10.0 0.00 0.00 0.00 81 1020.3
20260507030020 81 103 0.0 13.0 0.00 0.00 0.00 82 1020.4
20260507024518 81 87 3.0 13.0 0.00 0.00 0.00 81 1020.4
20260507023017 81 71 6.0 13.0 0.00 0.00 0.00 82 1020.4
20260507021517 81 69 9.0 15.0 0.00 0.00 0.00 82 1020.4
20260507020016 81 81 3.0 15.0 0.00 0.00 0.00 81 1020.3
20260507014517 81 80 4.0 15.0 0.00 0.00 0.00 81 1020.3
20260507013014 81 72 7.0 16.0 0.00 0.00 0.00 81 1020.1
20260507011527 81 63 8.0 14.0 0.00 0.00 0.00 81 1020.1
20260507010014 82 61 7.0 15.0 0.00 0.00 0.00 81 1019.9
20260507004612 82 83 3.0 10.0 0.00 0.00 0.00 81 1019.6
20260507003017 81 96 2.0 9.0 0.00 0.00 0.00 81 1019.6
20260507001511 81 143 1.0 9.0 0.00 0.00 0.00 81 1019.4
20260507000010 81 111 0.0 10.0 0.00 0.00 0.00 80 1019.3
20260506234511 81 121 1.0 9.0 0.00 0.00 0.00 80 1019.1
20260506233012 81 144 2.0 9.0 0.00 0.00 0.00 80 1018.8
20260506231509 82 129 3.0 10.0 0.00 0.00 0.00 80 1018.6
20260506230008 82 84 2.0 7.0 0.00 0.00 0.00 79 1018.6
20260506224512 82 137 2.0 11.0 0.00 0.00 0.00 79 1018.4
20260506223007 82 82 1.0 10.0 0.00 0.00 0.00 78 1018.3
20260506221506 82 142 1.0 11.0 0.00 0.00 0.00 78 1018.1
20260506220005 82 142 2.0 5.0 0.00 0.00 0.00 77 1017.9
20260506214504 83 65 0.0 10.0 0.00 0.00 0.00 76 1017.9
20260506213004 84 101 0.0 9.0 0.00 0.00 0.00 74 1017.7
20260506211503 86 73 2.0 10.0 0.00 0.00 0.00 73 1017.6
20260506210004 87 72 4.0 15.0 0.00 0.00 0.00 72 1017.6
20260506204504 87 94 4.0 16.0 0.00 0.00 0.00 74 1017.4
20260506203003 88 62 7.0 13.0 0.00 0.00 0.00 71 1017.4
20260506201503 90 70 7.0 15.0 0.00 0.00 0.00 70 1017.5
20260506200059 90 63 5.0 17.0 0.00 0.00 0.00 68 1017.6
20260506194558 91 76 9.0 14.0 0.00 0.00 0.00 68 1017.8
20260506193057 90 76 8.0 15.0 0.00 0.00 0.00 70 1017.9
20260506191559 89 77 10.0 14.0 0.00 0.00 0.00 70 1018.1
20260506190057 86 59 9.0 16.0 0.00 0.00 0.00 74 1018.2